| time (UTC) | temp F | wind direction | speed MPH | gust MPH | rain 1hr in | rain 24hr in | rain mn in | humidity % | barometer mb |
| 20260901031654 | 77 | 296 | 0.0 | 0.0 | 0.00 | 0.00 | 0.00 | 72 | 990.6 |
| 20260901025913 | 68 | 223 | 0.0 | 0.0 | 0.00 | 0.00 | 0.00 | 68 | 1013.6 |
| 20260901021133 | 77 | 355 | 0.0 | 0.0 | 0.00 | 0.00 | 0.00 | 71 | 991.5 |
| 20260901005908 | 71 | 227 | 0.0 | 1.0 | 0.00 | 0.00 | 0.00 | 64 | 1013.6 |
| 20260901001659 | 79 | 254 | 0.0 | 3.0 | 0.00 | 0.00 | 0.00 | 71 | 991.8 |
| 20260831235847 | 72 | 227 | 0.0 | 1.0 | 0.00 | 0.00 | 0.00 | 61 | 1013.3 |
| 20260831231027 | 79 | 204 | 0.0 | 0.0 | 0.00 | 0.00 | 0.00 | 72 | 991.3 |
| 20260831215927 | 78 | 227 | 0.0 | 1.0 | 0.00 | 0.00 | 0.00 | 55 | 1013.1 |
| 20260831211100 | 81 | 138 | 0.0 | 2.0 | 0.00 | 0.00 | 0.00 | 75 | 991.2 |
| 20260831205907 | 82 | 227 | 0.0 | 1.0 | 0.00 | 0.00 | 0.00 | 50 | 1012.6 |
| 20260831195904 | 84 | 231 | 1.0 | 3.0 | 0.00 | 0.00 | 0.00 | 48 | 1012.2 |
| 20260831191138 | 84 | 200 | 0.0 | 0.0 | 0.00 | 0.00 | 0.00 | 60 | 990.6 |
| 20260831185859 | 87 | 245 | 2.0 | 4.0 | 0.00 | 0.00 | 0.00 | 44 | 1011.8 |
| 20260831171510 | 87 | 200 | 0.0 | 4.0 | 0.00 | 0.00 | 0.00 | 62 | 989.9 |
| 20260831165900 | 95 | 241 | 1.0 | 7.0 | 0.00 | 0.00 | 0.00 | 36 | 1010.9 |
| 20260831155859 | 97 | 355 | 2.0 | 8.0 | 0.00 | 0.00 | 0.00 | 32 | 1010.7 |
| 20260831151603 | 88 | 90 | 2.0 | 8.0 | 0.00 | 0.00 | 0.00 | 60 | 990.6 |
| 20260831141040 | 89 | 83 | 4.0 | 8.0 | 0.00 | 0.00 | 0.00 | 53 | 990.7 |
| 20260831125856 | 96 | 340 | 3.0 | 8.0 | 0.00 | 0.00 | 0.00 | 32 | 1011.4 |
| 20260831121114 | 89 | 15 | 4.0 | 9.0 | 0.00 | 0.00 | 0.00 | 60 | 991.0 |
| 20260831115856 | 94 | 355 | 1.0 | 10.0 | 0.00 | 0.00 | 0.00 | 40 | 1012.0 |
| 20260831101551 | 89 | 179 | 5.0 | 10.0 | 0.00 | 0.00 | 0.00 | 55 | 991.4 |
| 20260831095908 | 88 | 321 | 3.0 | 9.0 | 0.00 | 0.00 | 0.00 | 56 | 1012.2 |
| 20260831091102 | 89 | 194 | 7.0 | 14.0 | 0.00 | 0.00 | 0.00 | 58 | 991.3 |
| 20260831085906 | 85 | 317 | 3.0 | 6.0 | 0.00 | 0.00 | 0.00 | 65 | 1012.4 |
| 20260831072203 | 87 | 165 | 4.0 | 10.0 | 0.00 | 0.00 | 0.00 | 62 | 990.9 |
| 20260831065855 | 75 | 21 | 1.0 | 3.0 | 0.00 | 0.00 | 0.00 | 75 | 1012.0 |
| 20260831061543 | 84 | 248 | 0.0 | 3.0 | 0.00 | 0.00 | 0.00 | 71 | 990.5 |
| 20260831051049 | 81 | 220 | 0.0 | 5.0 | 0.00 | 0.00 | 0.00 | 79 | 990.5 |
| 20260831035916 | 70 | 180 | 0.0 | 0.0 | 0.00 | 0.00 | 0.00 | 75 | 1011.4 |